Tutti
Stokmarknes, Skagen Airport (Stokmarknes, Nordland) SKN Meteo
|
Stokmarknes, Nordland (SKN / ENSK)
Cielo sereno
Venti leggeri |
|
4 °C |
Previsione area Terminal SKN
| Date | Time (CEST) | Flight Rules | Wind Dir. | Speed | Type | Height AGL (ft) | Visibility | Remarks | ||||||
|---|---|---|---|---|---|---|---|---|---|---|---|---|---|---|
Storico METAR SKN recente
| Date | Time (CEST) | Flight Rules | Wind Dir. | Speed | Type | Height AGL (ft) | Visibility | Temp (°C) | Temp (°F) | Dew Point (°C) | Dew Point (°F) | Rel. Humid. | Pressure | Density Altitude | Remarks |
|---|---|---|---|---|---|---|---|---|---|---|---|---|---|---|---|
| 06-set | 05:50 | VFR | 20° | 4 kt | 10000 meters | 4° | 39° | 1° | 33° | 81% | 1009 mb | -1.187 ft | |||
| 06-set | 05:20 | VFR | 10° | 4 kt | 10000 meters | 5° | 41° | 2° | 35° | 81% | 1009 mb | -1.067 ft | |||
| 06-set | 04:50 | VFR | 30° | 6 kt | 10000 meters | 5° | 41° | 2° | 35° | 81% | 1009 mb | -1.067 ft | |||
| 06-set | 04:20 | VFR | 40° | 4 kt | 10000 meters | 6° | 42° | 2° | 35° | 75% | 1009 mb | -947 ft | |||
| 06-set | 03:50 | VFR | 20° | 4 kt | 10000 meters | 6° | 42° | 2° | 35° | 75% | 1009 mb | -947 ft | |||
| 06-set | 03:20 | VFR | 30° | 5 kt | 10000 meters | 6° | 42° | 2° | 35° | 75% | 1009 mb | -947 ft | |||
| 06-set | 02:50 | VFR | 20° | 5 kt | 10000 meters | 6° | 42° | 2° | 35° | 75% | 1008 mb | -917 ft | |||
| 06-set | 02:20 | VFR | 10° | 4 kt | 10000 meters | 6° | 42° | 2° | 35° | 75% | 1008 mb | -917 ft | |||
| 06-set | 01:50 | VFR | 10° | 4 kt | 10000 meters | 7° | 44° | 2° | 35° | 70% | 1008 mb | -797 ft | |||
| 06-set | 01:20 | VFR | 360° | 5 kt | 10000 meters | 6° | 42° | 2° | 35° | 75% | 1008 mb | -917 ft | |||
| 06-set | 00:50 | VFR | 360° | 6 kt | 10000 meters | 7° | 44° | 2° | 35° | 70% | 1008 mb | -797 ft | |||
| 06-set | 00:20 | VFR | 20° | 5 kt | 10000 meters | 7° | 44° | 2° | 35° | 70% | 1008 mb | -797 ft | |||
| 05-set | 23:50 | VFR | 30° | 7 kt | 10000 meters | 7° | 44° | 2° | 35° | 70% | 1007 mb | -768 ft | |||
| 05-set | 23:20 | VFR | 20° | 8 kt | 10000 meters | 7° | 44° | 2° | 35° | 70% | 1007 mb | -768 ft | |||
| 05-set | 22:50 | VFR | 30° | 8 kt | 10000 meters | 7° | 44° | 3° | 37° | 76% | 1007 mb | -768 ft | |||
| 05-set | 22:20 | VFR | 40° | 8 kt | 10000 meters | 7° | 44° | 3° | 37° | 76% | 1007 mb | -768 ft | |||
| 05-set | 21:50 | VFR | 30° | 7 kt | 10000 meters | 7° | 44° | 3° | 37° | 76% | 1007 mb | -768 ft | |||
| 05-set | 21:20 | VFR | 30° | 6 kt | 10000 meters | 8° | 46° | 3° | 37° | 71% | 1007 mb | -648 ft | |||
| 05-set | 20:50 | VFR | 30° | 6 kt | 10000 meters | 8° | 46° | 3° | 37° | 71% | 1007 mb | -648 ft | |||
| 05-set | 20:20 | VFR | 20° | 8 kt | 10000 meters | 8° | 46° | 3° | 37° | 71% | 1006 mb | -618 ft | |||
| 05-set | 19:50 | VFR | 10° | 10 kt | 10000 meters | 9° | 48° | 3° | 37° | 66% | 1006 mb | -498 ft | |||
| 05-set | 19:20 | VFR | 360° | 11 kt | 10000 meters | 9° | 48° | 3° | 37° | 66% | 1006 mb | -498 ft | |||
| 05-set | 18:50 | VFR | 10° | 10 kt | 10000 meters | 10° | 50° | 4° | 39° | 66% | 1005 mb | -349 ft | |||
| 05-set | 18:20 | VFR | 10° | 12 kt | 10000 meters | 10° | 50° | 4° | 39° | 66% | 1005 mb | -349 ft |
Accedi
| Il tuo browser non è supportato. fai l'upgrade del tuo browser |
